sat.trackr.live / text

‹ back to catalog

STARLINK-3841

NORAD 52369 · 2022-045AQ

PAYLOAD ACTIVE UNKNOWN

§ Identity

Operator
Country
US
Launch date
2022-04-29
Launch site
AFETR
Launch vehicle
Mass (kg)
RCS (m²)

Purposes: comms

External: N2YO · Heavens-Above · Gunter

§ Orbital elements

Epoch: 2026-05-25T03:40:16.563936Z

Period
95.44 min
Inclination
53.2127°
Eccentricity
0.0001056
Mean motion
15.08831325 rev/d
Perigee alt
539.0 km
Apogee alt
540.5 km
Semi-major
6,917.9 km
B*
-6.4087e-5
RAAN
205.8629°
Arg perigee
86.0851°
Mean anomaly
274.0262°
Rev number
22,746

§ Raw data

STARLINK-38411 52369U 22045AQ  26145.15296949 -.00001307  00000+0 -64087-4 0  99922 52369  53.2127 205.8629 0001056  86.0851 274.0262 15.08831325227469

JSON: /api/v1/satellites/52369 · /tle

For live sub-satellite position, see the globe view (requires WebGL).

§ Visibility from observer

Set your observer location to see the next 7 days of passes ≥ 10°. The values pass through the URL so the page stays shareable.

No JS? Fill the form by hand. The geolocation button needs JavaScript.